sat.trackr.live / text

‹ back to catalog

STARLINK-31689

NORAD 59567 · 2024-076D

PAYLOAD ACTIVE UNKNOWN

§ Identity

Operator
Country
US
Launch date
2024-04-23
Launch site
AFETR
Launch vehicle
Mass (kg)
RCS (m²)

Purposes: comms

External: N2YO · Heavens-Above · Gunter

§ Orbital elements

Epoch: 2026-09-20T13:23:34.514304Z

Period
94.27 min
Inclination
43.0051°
Eccentricity
0.0001604
Mean motion
15.27580615 rev/d
Perigee alt
481.9 km
Apogee alt
484.1 km
Semi-major
6,861.2 km
B*
3.9546e-5
RAAN
345.1710°
Arg perigee
284.9115°
Mean anomaly
75.1559°
Rev number
13,634

§ Raw data

STARLINK-316891 59567U 24076D   26263.55803836  .00000826  00000+0  39546-4 0  99942 59567  43.0051 345.1710 0001604 284.9115  75.1559 15.27580615136348

JSON: /api/v1/satellites/59567 · /tle

For live sub-satellite position, see the globe view (requires WebGL).

§ Visibility from observer

Set your observer location to see the next 7 days of passes ≥ 10°. The values pass through the URL so the page stays shareable.

No JS? Fill the form by hand. The geolocation button needs JavaScript.